Starlink 31732

operational
NORAD ID: 60099 Int'l Des: 2024-117 Owner: SPXS Country: US Constellation: starlink
LEOCIRCULAR

About Starlink 31732

Description loading...

Live Position

Loading 3D Globe...

Upcoming Passes

Altitude History

Altitude vs Time

uPlot chart will show altitude changes over time

Two-Line Element Set

1 60099U 24117J 25303.26800786 -.00001280 00000-0 -31086-4 0 9994
2 60099 53.1610 282.5401 0001416 90.4593 269.6570 15.30190854 76921
Epoch: Oct 30, 2025 • Age: 21 hours

Current Status

Altitude 491.2 km
Velocity 7.62 km/s
Sub-Earth Point -44.84°S, 48.58°E
Launch Date Jun 23, 2024
Age 1.3 years
Type internet

Technical Details

Classification Payload
Mass 730.00 kg
Dry Mass 700.00 kg
Total Mass 730.00 kg
Length 0.30 m
Diameter 4.10 m
Span 29.00 m
Shape Box + pan
Manufacturer SPXS
Bus Type Starlink V2M
Phase Status In Orbit
Owner/State SPXS/US

Large Constellations

Loading constellations...